« Back
NWS Peachtree City, Ga » Text Product » GA Regional Weather Roundup


Printer-friendly Version
Current Version              Previous Versions:   1  2  3  4  5  6  7  8  9  

Regional Weather Roundup

781
ASUS42 KFFC 260503
RWRGA
WEATHER ROUNDUP FOR GEORGIA
NATIONAL WEATHER SERVICE PEACHTREE CITY GA
100 AM EDT MON SEP 26 2016

NOTE: "FAIR" INDICATES FEW OR NO CLOUDS BELOW 12,000 FEET WITH NO
SIGNIFICANT WEATHER AND/OR OBSTRUCTIONS TO VISIBILITY.

* = USE WITH CAUTION. THE STATIONS MARKED WITH AN ASTERISK MAY NOT
REPORT WEATHER SUCH AS PRECIPITATION, FOG, OR THUNDER AND ARE NOT
QUALITY CONTROLLED BY NWS.

THE REMARK "TC" DENOTES TEMPERATURE READING IN DEGREES CELSIUS.

GAZ001>058-260600-
NORTH GEORGIA

CITY           SKY/WX    TMP DP  RH WIND       PRES   REMARKS
ATLANTA        PTCLDY    75  65  70 S6        30.09R
ATHENS         PTCLDY    72  66  81 CALM      30.09R
CHAMBLEE       CLEAR     76  63  64 S7        30.10R
PEACHTREE CITY CLEAR     69  68  96 SE3       30.10R
ROME           CLEAR     72  61  68 CALM      30.05R
WEST ATLANTA   CLEAR     73  65  75 CALM      30.08R
GAINESVILLE    CLEAR     75  64  68 S3        30.13R
CARTERSVILLE   CLEAR     76  64  66 SE7       30.07R


CITY           SKY/WX    TMP DP  RH WIND       PRES   REMARKS
DALTON*        CLEAR     70  64  83 CALM      30.06R
MARIETTA       CLEAR     78  64  62 S6        30.09R
CANTON*        CLEAR     72  59  64 NE3       30.12R
BLAIRSVILLE*     N/A    N/A N/A N/A MISG      30.15R
$$

GAZ059>098-102>109-260600-
CENTRAL GEORGIA

CITY           SKY/WX    TMP DP  RH WIND       PRES   REMARKS
AUGUSTA-BUSH   CLEAR     68  67  96 S3        30.07S
AUGUSTA-DANIEL CLEAR     75  66  73 CALM      30.09R
COLUMBUS       CLEAR     74  68  81 CALM      30.06S
MACON          PTCLDY    72  65  78 SE5       30.07S
ROBINS AFB     PTCLDY    72  68  87 CALM      30.06S


CITY           SKY/WX    TMP DP  RH WIND       PRES   REMARKS
LAGRANGE*      CLEAR     70  70 100 CALM      30.08R
MILLEDGEVILLE* PTCLDY    73  68  83 CALM      30.09R
$$

GAZ099>101-110>166-260600-
SOUTH GEORGIA

CITY           SKY/WX    TMP DP  RH WIND       PRES   REMARKS
SAVANNAH       PTCLDY    75  72  90 VRB3      30.05S
VALDOSTA       PTCLDY    74  73  97 CALM      30.06F
ALMA           CLOUDY    72  70  93 CALM      30.05F
ST SIMONS      CLOUDY    80  74  81 E7        30.03S
FT STEWART     MOCLDY    72  70  91 CALM      30.03S
ALBANY         LGT RAIN  72  70  93 S6        30.06S
HUNTER AFB     PTCLDY    78  77  99 CALM      30.02S
MOODY AFB      CLOUDY    73  71  91 CALM      30.05F
BRUNSWICK      CLOUDY    77  77 100 CALM      30.04F


CITY           SKY/WX    TMP DP  RH WIND       PRES   REMARKS
BAINBRIDGE*    CLEAR     72  70  94 CALM      30.05S
MOULTRIE*      RAIN      72  70  94 CALM      30.06F
VIDALIA*       MOCLDY    72  72 100 CALM      30.08R
WAYCROSS*      CLOUDY    74  74  99 CALM      30.05S
DOUGLAS*       MOCLDY    72  70  94 CALM      30.07F
$$




USA.gov is the U.S. government's official web portal to all federal, state and local government web resources and services.